Year,Month,Day,Hour,Minute,Value (Times are PST for temperature in C)
2012,06,14,00,00,9.40
2012,06,14,00,02,9.40
2012,06,14,00,04,9.40
2012,06,14,00,05,9.40
2012,06,14,00,06,9.40
2012,06,14,00,07,9.40
2012,06,14,00,09,9.40
2012,06,14,00,10,9.30
2012,06,14,00,11,9.30
2012,06,14,00,12,9.30
2012,06,14,00,14,9.30
2012,06,14,00,15,9.30
2012,06,14,00,16,9.30
2012,06,14,00,17,9.30
2012,06,14,00,19,9.30
2012,06,14,00,20,9.30
2012,06,14,00,21,9.30
2012,06,14,00,22,9.30
2012,06,14,00,23,9.30
2012,06,14,00,24,9.30
2012,06,14,00,25,9.30
2012,06,14,00,27,9.30
2012,06,14,00,28,9.30
2012,06,14,00,29,9.30
2012,06,14,00,30,9.30
2012,06,14,00,31,9.30
2012,06,14,00,32,9.30
2012,06,14,00,33,9.30
2012,06,14,00,35,9.30
2012,06,14,00,36,9.30
2012,06,14,00,37,9.30
2012,06,14,00,38,9.30
2012,06,14,00,40,9.20
2012,06,14,00,41,9.20
2012,06,14,00,42,9.20
2012,06,14,00,43,9.20
2012,06,14,00,44,9.20
2012,06,14,00,45,9.20
2012,06,14,00,46,9.20
2012,06,14,00,47,9.20
2012,06,14,00,49,9.20
2012,06,14,00,50,9.20
2012,06,14,00,51,9.20
2012,06,14,00,53,9.10
2012,06,14,00,54,9.10
2012,06,14,00,55,9.10
2012,06,14,00,56,9.10
2012,06,14,00,58,9.10
2012,06,14,00,59,9.10
2012,06,14,01,00,9.10
2012,06,14,01,01,9.10
2012,06,14,01,02,9.10
2012,06,14,01,03,9.10
2012,06,14,01,04,9.10
2012,06,14,01,05,9.10
2012,06,14,01,06,9.10
2012,06,14,01,08,9.10
2012,06,14,01,09,9.10
2012,06,14,01,10,9.10
2012,06,14,01,12,9.10
2012,06,14,01,13,9.10
2012,06,14,01,14,9.00
2012,06,14,01,15,9.00
2012,06,14,01,17,9.00
2012,06,14,01,18,9.00
2012,06,14,01,19,8.90
2012,06,14,01,20,8.90
2012,06,14,01,21,8.90
2012,06,14,01,22,8.90
2012,06,14,01,23,8.90
2012,06,14,01,24,8.90
2012,06,14,01,25,8.90
2012,06,14,01,26,8.90
2012,06,14,01,27,8.90
2012,06,14,01,28,8.90
2012,06,14,01,29,8.90
2012,06,14,01,31,8.90
2012,06,14,01,32,8.90
2012,06,14,01,33,8.90
2012,06,14,01,34,8.90
2012,06,14,01,36,8.90
2012,06,14,01,37,8.90
2012,06,14,01,38,8.90
2012,06,14,01,39,8.90
2012,06,14,01,41,8.90
2012,06,14,01,42,8.90
2012,06,14,01,43,8.90
2012,06,14,01,44,8.90
2012,06,14,01,46,8.90
2012,06,14,01,47,8.90
2012,06,14,01,48,9.00
2012,06,14,01,49,9.00
2012,06,14,01,50,9.00
2012,06,14,01,51,9.00
2012,06,14,01,52,9.00
2012,06,14,01,53,9.00
2012,06,14,01,54,9.00
2012,06,14,01,56,9.00
2012,06,14,01,57,9.00
2012,06,14,01,58,9.00
2012,06,14,01,59,9.10
2012,06,14,02,01,9.10
2012,06,14,02,02,9.10
2012,06,14,02,03,9.10
2012,06,14,02,04,9.10
2012,06,14,02,06,9.10
2012,06,14,02,07,9.10
2012,06,14,02,08,9.10
2012,06,14,02,10,9.10
2012,06,14,02,11,9.10
2012,06,14,02,12,9.00
2012,06,14,02,13,9.00
2012,06,14,02,15,9.00
2012,06,14,02,16,9.00
2012,06,14,02,17,9.00
2012,06,14,02,18,9.00
2012,06,14,02,20,9.00
2012,06,14,02,21,9.10
2012,06,14,02,22,9.10
2012,06,14,02,23,9.10
2012,06,14,02,25,9.00
2012,06,14,02,26,9.00
2012,06,14,02,27,9.00
2012,06,14,02,29,9.00
2012,06,14,02,30,9.00
2012,06,14,02,31,9.00
2012,06,14,02,33,9.00
2012,06,14,02,34,9.00
2012,06,14,02,35,9.00
2012,06,14,02,36,9.00
2012,06,14,02,37,9.00
2012,06,14,02,38,9.00
2012,06,14,02,39,9.00
2012,06,14,02,40,9.00
2012,06,14,02,41,9.00
2012,06,14,02,43,9.00
2012,06,14,02,44,8.90
2012,06,14,02,45,8.90
2012,06,14,02,47,8.90
2012,06,14,02,48,8.90
2012,06,14,02,49,8.90
2012,06,14,02,50,8.90
2012,06,14,02,51,8.90
2012,06,14,02,53,8.90
2012,06,14,02,54,8.90
2012,06,14,02,55,8.90
2012,06,14,02,56,8.90
2012,06,14,02,58,8.90
2012,06,14,02,59,8.90
2012,06,14,03,00,8.90
2012,06,14,03,01,8.90
2012,06,14,03,02,8.90
2012,06,14,03,04,8.90
2012,06,14,03,05,8.90
2012,06,14,03,06,8.90
2012,06,14,03,07,8.90
2012,06,14,03,09,9.00
2012,06,14,03,10,9.00
2012,06,14,03,11,9.00
2012,06,14,03,12,9.00
2012,06,14,03,13,8.90
2012,06,14,03,15,8.90
2012,06,14,03,16,9.00
2012,06,14,03,17,9.00
2012,06,14,03,18,9.00
2012,06,14,03,20,9.00
2012,06,14,03,21,9.00
2012,06,14,03,22,9.00
2012,06,14,03,23,9.00
2012,06,14,03,25,9.00
2012,06,14,03,26,9.10
2012,06,14,03,27,9.10
2012,06,14,03,29,9.10
2012,06,14,03,30,9.10
2012,06,14,03,31,9.10
2012,06,14,03,32,9.10
2012,06,14,03,34,9.10
2012,06,14,03,35,9.10
2012,06,14,03,36,9.10
2012,06,14,03,37,9.10
2012,06,14,03,38,9.10
2012,06,14,03,39,9.10
2012,06,14,03,40,9.10
2012,06,14,03,41,9.20
2012,06,14,03,43,9.20
2012,06,14,03,44,9.10
2012,06,14,03,45,9.20
2012,06,14,03,47,9.20
2012,06,14,03,48,9.20
2012,06,14,03,49,9.20
2012,06,14,03,50,9.20
2012,06,14,03,51,9.20
2012,06,14,03,52,9.20
2012,06,14,03,53,9.20
2012,06,14,03,54,9.20
2012,06,14,03,55,9.20
2012,06,14,03,57,9.20
2012,06,14,03,58,9.20
2012,06,14,03,59,9.20
2012,06,14,04,00,9.20
2012,06,14,04,02,9.20
2012,06,14,04,03,9.20
2012,06,14,04,04,9.20
2012,06,14,04,05,9.20
2012,06,14,04,06,9.20
2012,06,14,04,07,9.20
2012,06,14,04,08,9.20
2012,06,14,04,09,9.20
2012,06,14,04,11,9.20
2012,06,14,04,12,9.20
2012,06,14,04,13,9.20
2012,06,14,04,14,9.20
2012,06,14,04,15,9.20
2012,06,14,04,16,9.20
2012,06,14,04,17,9.20
2012,06,14,04,18,9.20
2012,06,14,04,19,9.20
2012,06,14,04,20,9.20
2012,06,14,04,21,9.20
2012,06,14,04,22,9.20
2012,06,14,04,23,9.20
2012,06,14,04,24,9.20
2012,06,14,04,25,9.20
2012,06,14,04,26,9.20
2012,06,14,04,27,9.20
2012,06,14,04,29,9.20
2012,06,14,04,30,9.20
2012,06,14,04,31,9.20
2012,06,14,04,32,9.20
2012,06,14,04,34,9.20
2012,06,14,04,35,9.20
2012,06,14,04,36,9.20
2012,06,14,04,38,9.20
2012,06,14,04,39,9.20
2012,06,14,04,40,9.20
2012,06,14,04,41,9.20
2012,06,14,04,43,9.30
2012,06,14,04,44,9.30
2012,06,14,04,45,9.30
2012,06,14,04,46,9.30
2012,06,14,04,47,9.30
2012,06,14,04,48,9.30
2012,06,14,04,49,9.20
2012,06,14,04,50,9.30
2012,06,14,04,51,9.30
2012,06,14,04,52,9.30
2012,06,14,04,53,9.30
2012,06,14,04,54,9.30
2012,06,14,04,55,9.30
2012,06,14,04,57,9.30
2012,06,14,04,58,9.30
2012,06,14,04,59,9.30
2012,06,14,05,00,9.30
2012,06,14,05,02,9.30
2012,06,14,05,03,9.30
2012,06,14,05,04,9.30
2012,06,14,05,06,9.30
2012,06,14,05,07,9.30
2012,06,14,05,08,9.30
2012,06,14,05,09,9.30
2012,06,14,05,11,9.30
2012,06,14,05,12,9.30
2012,06,14,05,13,9.30
2012,06,14,05,14,9.30
2012,06,14,05,16,9.30
2012,06,14,05,17,9.30
2012,06,14,05,18,9.30
2012,06,14,05,20,9.30
2012,06,14,05,21,9.30
2012,06,14,05,22,9.30
2012,06,14,05,23,9.30
2012,06,14,05,25,9.30
2012,06,14,05,26,9.30
2012,06,14,05,27,9.20
2012,06,14,05,28,9.20
2012,06,14,05,30,9.20
2012,06,14,05,31,9.20
2012,06,14,05,32,9.20
2012,06,14,05,34,9.20
2012,06,14,05,35,9.20
2012,06,14,05,36,9.20
2012,06,14,05,37,9.20
2012,06,14,05,38,9.20
2012,06,14,05,39,9.20
2012,06,14,05,40,9.20
2012,06,14,05,41,9.20
2012,06,14,05,42,9.20
2012,06,14,05,43,9.20
2012,06,14,05,44,9.20
2012,06,14,05,45,9.20
2012,06,14,05,46,9.20
2012,06,14,05,47,9.20
2012,06,14,05,48,9.20
2012,06,14,05,49,9.20
2012,06,14,05,50,9.20
2012,06,14,05,51,9.20
2012,06,14,05,52,9.20
2012,06,14,05,53,9.20
2012,06,14,05,54,9.20
2012,06,14,05,55,9.20
2012,06,14,05,56,9.20
2012,06,14,05,57,9.20
2012,06,14,05,58,9.20
2012,06,14,05,59,9.20
2012,06,14,06,00,9.20
2012,06,14,06,01,9.20
2012,06,14,06,02,9.20
2012,06,14,06,03,9.20
2012,06,14,06,04,9.20
2012,06,14,06,05,9.20
2012,06,14,06,06,9.20
2012,06,14,06,07,9.20
2012,06,14,06,08,9.20
2012,06,14,06,09,9.20
2012,06,14,06,10,9.20
2012,06,14,06,11,9.20
2012,06,14,06,12,9.20
2012,06,14,06,14,9.20
2012,06,14,06,15,9.20
2012,06,14,06,16,9.20
2012,06,14,06,17,9.20
2012,06,14,06,18,9.20
2012,06,14,06,19,9.20
2012,06,14,06,20,9.20
2012,06,14,06,21,9.20
2012,06,14,06,22,9.20
2012,06,14,06,23,9.20
2012,06,14,06,24,9.20
2012,06,14,06,25,9.20
2012,06,14,06,26,9.20
2012,06,14,06,28,9.20
2012,06,14,06,29,9.20
2012,06,14,06,30,9.20
2012,06,14,06,31,9.30
2012,06,14,06,33,9.30
2012,06,14,06,34,9.30
2012,06,14,06,35,9.30
2012,06,14,06,37,9.30
2012,06,14,06,38,9.30
2012,06,14,06,39,9.30
2012,06,14,06,40,9.40
2012,06,14,06,41,9.40
2012,06,14,06,43,9.40
2012,06,14,06,44,9.40
2012,06,14,06,45,9.40
2012,06,14,06,46,9.50
2012,06,14,06,48,9.50
2012,06,14,06,49,9.60
2012,06,14,06,50,9.60
2012,06,14,06,51,9.60
2012,06,14,06,52,9.60
2012,06,14,06,54,9.60
2012,06,14,06,55,9.60
2012,06,14,06,56,9.60
2012,06,14,06,57,9.60
2012,06,14,06,59,9.70
2012,06,14,07,00,9.70
2012,06,14,07,01,9.70
2012,06,14,07,02,9.70
2012,06,14,07,04,9.70
2012,06,14,07,05,9.70
2012,06,14,07,06,9.70
2012,06,14,07,07,9.70
2012,06,14,07,09,9.70
2012,06,14,07,10,9.70
2012,06,14,07,11,9.70
2012,06,14,07,13,9.70
2012,06,14,07,14,9.80
2012,06,14,07,15,9.80
2012,06,14,07,16,9.80
2012,06,14,07,18,9.80
2012,06,14,07,19,9.80
2012,06,14,07,20,9.80
2012,06,14,07,21,9.90
2012,06,14,07,23,9.90
2012,06,14,07,24,9.90
2012,06,14,07,25,9.90
2012,06,14,07,26,9.90
2012,06,14,07,28,9.90
2012,06,14,07,29,9.90
2012,06,14,07,30,9.90
2012,06,14,07,31,9.90
2012,06,14,07,32,9.90
2012,06,14,07,33,9.90
2012,06,14,07,34,10.00
2012,06,14,07,35,10.00
2012,06,14,07,36,10.10
2012,06,14,07,37,10.10
2012,06,14,07,38,10.10
2012,06,14,07,39,10.10
2012,06,14,07,40,10.10
2012,06,14,07,41,10.20
2012,06,14,07,42,10.20
2012,06,14,07,43,10.20
2012,06,14,07,44,10.20
2012,06,14,07,45,10.20
2012,06,14,07,46,10.30
2012,06,14,07,47,10.30
2012,06,14,07,48,10.30
2012,06,14,07,49,10.30
2012,06,14,07,51,10.30
2012,06,14,07,52,10.30
2012,06,14,07,53,10.30
2012,06,14,07,54,10.30
2012,06,14,07,55,10.30
2012,06,14,07,56,10.40
2012,06,14,07,57,10.40
2012,06,14,07,58,10.30
2012,06,14,07,59,10.30
2012,06,14,08,00,10.30
2012,06,14,08,01,10.30
2012,06,14,08,02,10.30
2012,06,14,08,03,10.30
2012,06,14,08,04,10.30
2012,06,14,08,05,10.30
2012,06,14,08,06,10.30
2012,06,14,08,07,10.30
2012,06,14,08,08,10.30
2012,06,14,08,09,10.20
2012,06,14,08,11,10.20
2012,06,14,08,12,10.20
2012,06,14,08,13,10.20
2012,06,14,08,14,10.10
2012,06,14,08,15,10.10
2012,06,14,08,16,10.20
2012,06,14,08,17,10.20
2012,06,14,08,18,10.20
2012,06,14,08,20,10.20
2012,06,14,08,21,10.20
2012,06,14,08,22,10.20
2012,06,14,08,23,10.20
2012,06,14,08,24,10.20
2012,06,14,08,25,10.20
2012,06,14,08,26,10.20
2012,06,14,08,27,10.20
2012,06,14,08,28,10.20
2012,06,14,08,29,10.20
2012,06,14,08,30,10.20
2012,06,14,08,31,10.20
2012,06,14,08,32,10.20
2012,06,14,08,34,10.20
2012,06,14,08,35,10.20
2012,06,14,08,36,10.20
2012,06,14,08,37,10.20
2012,06,14,08,38,10.20
2012,06,14,08,39,10.20
2012,06,14,08,40,10.20
2012,06,14,08,41,10.30
2012,06,14,08,43,10.30
2012,06,14,08,44,10.30
2012,06,14,08,45,10.40
2012,06,14,08,46,10.40
2012,06,14,08,47,10.40
2012,06,14,08,48,10.40
2012,06,14,08,49,10.40
2012,06,14,08,50,10.50
2012,06,14,08,51,10.50
2012,06,14,08,52,10.50
2012,06,14,08,53,10.50
2012,06,14,08,54,10.50
2012,06,14,08,55,10.40
2012,06,14,08,56,10.40
2012,06,14,08,58,10.40
2012,06,14,08,59,10.40
2012,06,14,09,00,10.30
2012,06,14,09,01,10.30
2012,06,14,09,03,10.30
2012,06,14,09,04,10.30
2012,06,14,09,05,10.40
2012,06,14,09,06,10.40
2012,06,14,09,08,10.40
2012,06,14,09,09,10.40
2012,06,14,09,10,10.50
2012,06,14,09,11,10.60
2012,06,14,09,13,10.60
2012,06,14,09,14,10.60
2012,06,14,09,15,10.60
2012,06,14,09,16,10.60
2012,06,14,09,18,10.60
2012,06,14,09,19,10.70
2012,06,14,09,20,10.70
2012,06,14,09,22,10.80
2012,06,14,09,23,10.80
2012,06,14,09,24,10.90
2012,06,14,09,25,11.00
2012,06,14,09,26,11.10
2012,06,14,09,27,11.10
2012,06,14,09,28,11.20
2012,06,14,09,29,11.20
2012,06,14,09,30,11.20
2012,06,14,09,32,11.30
2012,06,14,09,33,11.30
2012,06,14,09,34,11.40
2012,06,14,09,35,11.40
2012,06,14,09,36,11.50
2012,06,14,09,37,11.60
2012,06,14,09,38,11.60
2012,06,14,09,39,11.60
2012,06,14,09,40,11.70
2012,06,14,09,41,11.70
2012,06,14,09,42,11.70
2012,06,14,09,43,11.80
2012,06,14,09,44,11.80
2012,06,14,09,45,11.80
2012,06,14,09,46,11.80
2012,06,14,09,47,11.80
2012,06,14,09,48,11.90
2012,06,14,09,49,11.80
2012,06,14,09,50,11.80
2012,06,14,09,51,11.80
2012,06,14,09,52,11.80
2012,06,14,09,53,11.80
2012,06,14,09,54,11.80
2012,06,14,09,55,11.80
2012,06,14,09,56,11.80
2012,06,14,09,57,11.80
2012,06,14,09,58,11.80
2012,06,14,09,59,11.80
2012,06,14,10,00,11.80
2012,06,14,10,01,11.80
2012,06,14,10,02,11.80
2012,06,14,10,03,11.90
2012,06,14,10,05,11.90
2012,06,14,10,06,11.90
2012,06,14,10,07,12.00
2012,06,14,10,08,12.00
2012,06,14,10,09,12.00
2012,06,14,10,10,12.00
2012,06,14,10,11,12.00
2012,06,14,10,12,12.00
2012,06,14,10,13,12.00
2012,06,14,10,14,12.00
2012,06,14,10,15,12.10
2012,06,14,10,16,12.10
2012,06,14,10,17,12.10
2012,06,14,10,18,12.00
2012,06,14,10,19,12.00
2012,06,14,10,20,12.00
2012,06,14,10,21,12.10
2012,06,14,10,22,12.10
2012,06,14,10,23,12.10
2012,06,14,10,24,12.10
2012,06,14,10,25,12.20
2012,06,14,10,26,12.30
2012,06,14,10,27,12.30
2012,06,14,10,28,12.30
2012,06,14,10,29,12.40
2012,06,14,10,30,12.40
2012,06,14,10,31,12.40
2012,06,14,10,33,12.40
2012,06,14,10,34,12.30
2012,06,14,10,35,12.30
2012,06,14,10,36,12.40
2012,06,14,10,37,12.30
2012,06,14,10,39,12.30
2012,06,14,10,40,12.30
2012,06,14,10,41,12.30
2012,06,14,10,43,12.20
2012,06,14,10,44,12.20
2012,06,14,10,45,12.10
2012,06,14,10,46,12.00
2012,06,14,10,48,12.10
2012,06,14,10,49,12.20
2012,06,14,10,50,12.30
2012,06,14,10,51,12.20
2012,06,14,10,52,12.20
2012,06,14,10,53,12.10
2012,06,14,10,54,12.10
2012,06,14,10,55,12.10
2012,06,14,10,57,12.10
2012,06,14,10,58,12.20
2012,06,14,10,59,12.20
2012,06,14,11,00,12.20
2012,06,14,11,02,12.20
2012,06,14,11,03,12.20
2012,06,14,11,04,12.30
2012,06,14,11,05,12.30
2012,06,14,11,07,12.30
2012,06,14,11,08,12.20
2012,06,14,11,09,12.20
2012,06,14,11,10,12.30
2012,06,14,11,11,12.30
2012,06,14,11,12,12.30
2012,06,14,11,13,12.40
2012,06,14,11,14,12.40
2012,06,14,11,15,12.40
2012,06,14,11,16,12.50
2012,06,14,11,17,12.50
2012,06,14,11,18,12.50
2012,06,14,11,20,12.60
2012,06,14,11,21,12.60
2012,06,14,11,22,12.60
2012,06,14,11,23,12.50
2012,06,14,11,24,12.40
2012,06,14,11,25,12.40
2012,06,14,11,26,12.50
2012,06,14,11,27,12.60
2012,06,14,11,28,12.60
2012,06,14,11,30,12.60
2012,06,14,11,31,12.50
2012,06,14,11,32,12.50
2012,06,14,11,33,12.50
2012,06,14,11,34,12.40
2012,06,14,11,35,12.40
2012,06,14,11,36,12.40
2012,06,14,11,37,12.40
2012,06,14,11,38,12.40
2012,06,14,11,39,12.40
2012,06,14,11,40,12.40
2012,06,14,11,41,12.40
2012,06,14,11,42,12.30
2012,06,14,11,43,12.30
2012,06,14,11,45,12.30
2012,06,14,11,46,12.40
2012,06,14,11,47,12.30
2012,06,14,11,48,12.30
2012,06,14,11,49,12.40
2012,06,14,11,50,12.40
2012,06,14,11,51,12.40
2012,06,14,11,52,12.40
2012,06,14,11,53,12.40
2012,06,14,11,55,12.30
2012,06,14,11,56,12.30
2012,06,14,11,57,12.30
2012,06,14,11,58,12.20
2012,06,14,11,59,12.30
2012,06,14,12,00,12.30
2012,06,14,12,01,12.30
2012,06,14,12,02,12.30
2012,06,14,12,03,12.30
2012,06,14,12,04,12.30
2012,06,14,12,05,12.40
2012,06,14,12,06,12.40
2012,06,14,12,07,12.40
2012,06,14,12,09,12.40
2012,06,14,12,10,12.50
2012,06,14,12,11,12.50
2012,06,14,12,12,12.50
2012,06,14,12,13,12.40
2012,06,14,12,14,12.40
2012,06,14,12,15,12.30
2012,06,14,12,16,12.30
2012,06,14,12,17,12.30
2012,06,14,12,19,12.30
2012,06,14,12,20,12.30
2012,06,14,12,21,12.20
2012,06,14,12,22,12.20
2012,06,14,12,24,12.20
2012,06,14,12,25,12.30
2012,06,14,12,26,12.30
2012,06,14,12,27,12.30
2012,06,14,12,28,12.40
2012,06,14,12,29,12.40
2012,06,14,12,30,12.50
2012,06,14,12,31,12.60
2012,06,14,12,33,12.70
2012,06,14,12,34,12.70
2012,06,14,12,35,12.70
2012,06,14,12,36,12.70
2012,06,14,12,37,12.70
2012,06,14,12,38,12.70
2012,06,14,12,39,12.80
2012,06,14,12,40,12.80
2012,06,14,12,41,12.80
2012,06,14,12,43,12.90
2012,06,14,12,44,13.00
2012,06,14,12,45,13.10
2012,06,14,12,46,13.00
2012,06,14,12,47,13.00
2012,06,14,12,48,13.00
2012,06,14,12,49,13.10
2012,06,14,12,50,13.20
2012,06,14,12,51,13.20
2012,06,14,12,52,13.30
2012,06,14,12,53,13.30
2012,06,14,12,54,13.40
2012,06,14,12,55,13.40
2012,06,14,12,56,13.40
2012,06,14,12,57,13.40
2012,06,14,12,58,13.40
2012,06,14,12,59,13.50
2012,06,14,13,00,13.60
2012,06,14,13,01,13.60
2012,06,14,13,02,13.70
2012,06,14,13,04,13.70
2012,06,14,13,05,13.80
2012,06,14,13,06,13.80
2012,06,14,13,07,13.80
2012,06,14,13,09,13.80
2012,06,14,13,10,13.80
2012,06,14,13,11,13.80
2012,06,14,13,12,13.80
2012,06,14,13,14,13.90
2012,06,14,13,15,13.90
2012,06,14,13,16,13.90
2012,06,14,13,17,14.00
2012,06,14,13,18,14.00
2012,06,14,13,19,14.00
2012,06,14,13,20,14.10
2012,06,14,13,21,14.20
2012,06,14,13,23,14.30
2012,06,14,13,24,14.40
2012,06,14,13,25,14.40
2012,06,14,13,26,14.40
2012,06,14,13,27,14.40
2012,06,14,13,28,14.40
2012,06,14,13,29,14.40
2012,06,14,13,30,14.40
2012,06,14,13,31,14.40
2012,06,14,13,32,14.40
2012,06,14,13,34,14.40
2012,06,14,13,35,14.30
2012,06,14,13,36,14.20
2012,06,14,13,38,14.20
2012,06,14,13,39,14.10
2012,06,14,13,40,14.20
2012,06,14,13,41,14.20
2012,06,14,13,43,14.20
2012,06,14,13,44,14.20
2012,06,14,13,45,14.10
2012,06,14,13,46,14.10
2012,06,14,13,48,14.10
2012,06,14,13,49,14.10
2012,06,14,13,50,14.10
2012,06,14,13,51,14.10
2012,06,14,13,53,14.10
2012,06,14,13,54,14.10
2012,06,14,13,55,14.20
2012,06,14,13,56,14.20
2012,06,14,13,58,14.20
2012,06,14,13,59,14.30
2012,06,14,14,00,14.40
2012,06,14,14,02,14.60
2012,06,14,14,03,14.80
2012,06,14,14,04,14.80
2012,06,14,14,06,14.80
2012,06,14,14,07,14.80
2012,06,14,14,08,14.80
2012,06,14,14,09,14.90
2012,06,14,14,11,14.90
2012,06,14,14,12,14.90
2012,06,14,14,13,15.00
2012,06,14,14,14,14.90
2012,06,14,14,16,14.90
2012,06,14,14,17,14.80
2012,06,14,14,18,14.70
2012,06,14,14,19,14.70
2012,06,14,14,21,14.60
2012,06,14,14,22,14.50
2012,06,14,14,23,14.60
2012,06,14,14,24,14.60
2012,06,14,14,26,14.60
2012,06,14,14,27,14.60
2012,06,14,14,28,14.60
2012,06,14,14,29,14.60
2012,06,14,14,30,14.60
2012,06,14,14,32,14.60
2012,06,14,14,33,14.60
2012,06,14,14,34,14.70
2012,06,14,14,35,14.60
2012,06,14,14,37,14.60
2012,06,14,14,38,14.70
2012,06,14,14,39,14.60
2012,06,14,14,40,14.60
2012,06,14,14,41,14.60
2012,06,14,14,42,14.60
2012,06,14,14,43,14.60
2012,06,14,14,44,14.70
2012,06,14,14,45,14.60
2012,06,14,14,47,14.70
2012,06,14,14,48,14.60
2012,06,14,14,49,14.50
2012,06,14,14,50,14.40
2012,06,14,14,51,14.40
2012,06,14,14,52,14.40
2012,06,14,14,53,14.40
2012,06,14,14,54,14.30
2012,06,14,14,55,14.30
2012,06,14,14,56,14.20
2012,06,14,14,57,14.20
2012,06,14,14,58,14.30
2012,06,14,14,59,14.20
2012,06,14,15,00,14.20
2012,06,14,15,01,14.20
2012,06,14,15,02,14.10
2012,06,14,15,03,14.10
2012,06,14,15,04,14.10
2012,06,14,15,05,14.20
2012,06,14,15,06,14.20
2012,06,14,15,07,14.20
2012,06,14,15,08,14.20
2012,06,14,15,09,14.10
2012,06,14,15,10,14.10
2012,06,14,15,11,14.10
2012,06,14,15,13,14.10
2012,06,14,15,14,14.10
2012,06,14,15,15,14.10
2012,06,14,15,16,14.10
2012,06,14,15,18,14.10
2012,06,14,15,19,14.10
2012,06,14,15,20,14.10
2012,06,14,15,21,14.10
2012,06,14,15,22,14.10
2012,06,14,15,23,14.10
2012,06,14,15,24,14.20
2012,06,14,15,25,14.20
2012,06,14,15,26,14.20
2012,06,14,15,27,14.30
2012,06,14,15,28,14.40
2012,06,14,15,29,14.40
2012,06,14,15,30,14.40
2012,06,14,15,31,14.40
2012,06,14,15,32,14.40
2012,06,14,15,33,14.50
2012,06,14,15,34,14.60
2012,06,14,15,35,14.60
2012,06,14,15,36,14.60
2012,06,14,15,37,14.60
2012,06,14,15,38,14.50
2012,06,14,15,39,14.60
2012,06,14,15,40,14.60
2012,06,14,15,42,14.50
2012,06,14,15,43,14.60
2012,06,14,15,44,14.60
2012,06,14,15,45,14.60
2012,06,14,15,46,14.60
2012,06,14,15,47,14.70
2012,06,14,15,48,14.80
2012,06,14,15,49,14.90
2012,06,14,15,50,15.00
2012,06,14,15,52,15.10
2012,06,14,15,53,15.30
2012,06,14,15,54,15.60
2012,06,14,15,55,15.80
2012,06,14,15,56,15.80
2012,06,14,15,57,16.00
2012,06,14,15,58,16.10
2012,06,14,15,59,16.20
2012,06,14,16,00,16.20
2012,06,14,16,01,16.20
2012,06,14,16,02,16.20
2012,06,14,16,03,16.20
2012,06,14,16,04,16.20
2012,06,14,16,05,16.20
2012,06,14,16,06,16.20
2012,06,14,16,07,16.20
2012,06,14,16,08,16.10
2012,06,14,16,09,15.90
2012,06,14,16,10,15.80
2012,06,14,16,12,15.70
2012,06,14,16,13,15.60
2012,06,14,16,14,15.50
2012,06,14,16,15,15.40
2012,06,14,16,16,15.40
2012,06,14,16,17,15.30
2012,06,14,16,18,15.30
2012,06,14,16,19,15.30
2012,06,14,16,20,15.30
2012,06,14,16,21,15.20
2012,06,14,16,22,15.20
2012,06,14,16,23,15.20
2012,06,14,16,24,15.20
2012,06,14,16,25,15.20
2012,06,14,16,26,15.10
2012,06,14,16,27,15.20
2012,06,14,16,28,15.20
2012,06,14,16,29,15.30
2012,06,14,16,31,15.30
2012,06,14,16,32,15.30
2012,06,14,16,33,15.30
2012,06,14,16,35,15.30
2012,06,14,16,36,15.30
2012,06,14,16,37,15.20
2012,06,14,16,38,15.20
2012,06,14,16,39,15.20
2012,06,14,16,40,15.10
2012,06,14,16,41,15.10
2012,06,14,16,42,15.00
2012,06,14,16,44,15.00
2012,06,14,16,45,15.00
2012,06,14,16,46,15.00
2012,06,14,16,47,15.00
2012,06,14,16,49,15.00
2012,06,14,16,50,15.10
2012,06,14,16,51,15.10
2012,06,14,16,52,15.10
2012,06,14,16,53,15.10
2012,06,14,16,55,15.00
2012,06,14,16,56,14.90
2012,06,14,16,57,14.90
2012,06,14,16,58,14.90
2012,06,14,17,00,14.90
2012,06,14,17,01,14.90
2012,06,14,17,02,14.90
2012,06,14,17,04,14.90
2012,06,14,17,05,14.80
2012,06,14,17,06,14.80
2012,06,14,17,07,14.80
2012,06,14,17,09,14.80
2012,06,14,17,10,14.80
2012,06,14,17,11,14.80
2012,06,14,17,13,14.80
2012,06,14,17,14,14.80
2012,06,14,17,15,14.80
2012,06,14,17,16,14.80
2012,06,14,17,18,14.80
2012,06,14,17,19,14.80
2012,06,14,17,20,14.90
2012,06,14,17,21,14.90
2012,06,14,17,22,14.90
2012,06,14,17,24,14.90
2012,06,14,17,25,14.90
2012,06,14,17,26,15.00
2012,06,14,17,27,15.00
2012,06,14,17,28,15.00
2012,06,14,17,29,15.10
2012,06,14,17,30,15.10
2012,06,14,17,32,15.10
2012,06,14,17,33,15.10
2012,06,14,17,34,15.10
2012,06,14,17,35,15.00
2012,06,14,17,37,15.00
2012,06,14,17,38,15.00
2012,06,14,17,39,15.00
2012,06,14,17,41,15.00
2012,06,14,17,42,15.10
2012,06,14,17,43,15.10
2012,06,14,17,44,15.10
2012,06,14,17,45,15.20
2012,06,14,17,46,15.20
2012,06,14,17,47,15.20
2012,06,14,17,48,15.20
2012,06,14,17,49,15.20
2012,06,14,17,50,15.30
2012,06,14,17,51,15.30
2012,06,14,17,52,15.30
2012,06,14,17,54,15.30
2012,06,14,17,55,15.30
2012,06,14,17,56,15.20
2012,06,14,17,57,15.20
2012,06,14,17,59,15.20
2012,06,14,18,00,15.20
2012,06,14,18,01,15.20
2012,06,14,18,02,15.20
2012,06,14,18,03,15.30
2012,06,14,18,05,15.30
2012,06,14,18,06,15.30
2012,06,14,18,07,15.40
2012,06,14,18,08,15.40
2012,06,14,18,10,15.40
2012,06,14,18,11,15.40
2012,06,14,18,12,15.30
2012,06,14,18,13,15.30
2012,06,14,18,14,15.30
2012,06,14,18,16,15.30
2012,06,14,18,17,15.20
2012,06,14,18,18,15.20
2012,06,14,18,19,15.20
2012,06,14,18,21,15.20
2012,06,14,18,22,15.20
2012,06,14,18,23,15.30
2012,06,14,18,24,15.30
2012,06,14,18,25,15.30
2012,06,14,18,27,15.40
2012,06,14,18,28,15.50
2012,06,14,18,29,15.50
2012,06,14,18,30,15.50
2012,06,14,18,32,15.50
2012,06,14,18,33,15.50
2012,06,14,18,34,15.50
2012,06,14,18,35,15.40
2012,06,14,18,37,15.40
2012,06,14,18,38,15.40
2012,06,14,18,39,15.30
2012,06,14,18,40,15.30
2012,06,14,18,42,15.30
2012,06,14,18,43,15.30
2012,06,14,18,44,15.30
2012,06,14,18,45,15.30
2012,06,14,18,46,15.30
2012,06,14,18,47,15.30
2012,06,14,18,49,15.30
2012,06,14,18,50,15.30
2012,06,14,18,51,15.20
2012,06,14,18,53,15.20
2012,06,14,18,54,15.20
2012,06,14,18,55,15.10
2012,06,14,18,56,15.10
2012,06,14,18,58,15.10
2012,06,14,18,59,15.10
2012,06,14,19,00,15.10
2012,06,14,19,01,15.10
2012,06,14,19,02,15.10
2012,06,14,19,03,15.10
2012,06,14,19,04,15.10
2012,06,14,19,05,15.10
2012,06,14,19,06,15.20
2012,06,14,19,07,15.20
2012,06,14,19,08,15.20
2012,06,14,19,09,15.20
2012,06,14,19,11,15.20
2012,06,14,19,12,15.20
2012,06,14,19,13,15.20
2012,06,14,19,14,15.20
2012,06,14,19,16,15.20
2012,06,14,19,17,15.20
2012,06,14,19,18,15.20
2012,06,14,19,19,15.20
2012,06,14,19,20,15.20
2012,06,14,19,22,15.10
2012,06,14,19,23,15.00
2012,06,14,19,24,14.80
2012,06,14,19,25,14.70
2012,06,14,19,27,14.70
2012,06,14,19,28,14.70
2012,06,14,19,29,14.60
2012,06,14,19,30,14.60
2012,06,14,19,31,14.50
2012,06,14,19,33,14.40
2012,06,14,19,34,14.30
2012,06,14,19,35,14.20
2012,06,14,19,36,14.20
2012,06,14,19,37,14.10
2012,06,14,19,39,14.00
2012,06,14,19,40,13.90
2012,06,14,19,41,13.80
2012,06,14,19,42,13.70
2012,06,14,19,44,13.70
2012,06,14,19,45,13.60
2012,06,14,19,46,13.60
2012,06,14,19,47,13.70
2012,06,14,19,49,13.70
2012,06,14,19,50,13.70
2012,06,14,19,51,13.80
2012,06,14,19,52,13.80
2012,06,14,19,54,13.80
2012,06,14,19,55,13.80
2012,06,14,19,56,13.80
2012,06,14,19,58,13.80
2012,06,14,19,59,13.80
2012,06,14,20,00,13.80
2012,06,14,20,01,13.80
2012,06,14,20,02,13.80
2012,06,14,20,04,13.80
2012,06,14,20,05,13.70
2012,06,14,20,06,13.70
2012,06,14,20,07,13.70
2012,06,14,20,08,13.70
2012,06,14,20,10,13.70
2012,06,14,20,11,13.60
2012,06,14,20,12,13.60
2012,06,14,20,13,13.60
2012,06,14,20,15,13.60
2012,06,14,20,16,13.60
2012,06,14,20,17,13.60
2012,06,14,20,18,13.50
2012,06,14,20,20,13.40